CAPE
1 1 1 0 1 1 0 2 0 2 0 1 0 0 0 0 0 0 0 0 0 0 120 67 632 1022 940 835 772 1000 737 483 486 506 486 259 356 406 157 50 62 176 124 190 241
1 2 1 1 0 1 1 1 1 1 0 1 0 0 0 0 0 0 0 0 77 413 487 1359 1408 1116 775 590 995 1239 628 489 500 546 542 323 399 377 68 127 263 223 130 250 294
1 1 1 1 1 1 1 1 1 1 1 1 0 0 0 0 0 0 0 197 810 894 1079 1035 1179 1249 658 799 693 608 580 611 546 430 421 403 410 387 175 462 312 104 263 357 223
1 1 2 1 2 1 1 1 0 1 1 1 0 0 0 0 0 0 0 58 815 414 801 828 1161 901 728 705 631 577 322 341 364 196 352 462 479 375 315 454 271 15 282 354 171
1 2 1 1 1 0 1 1 1 2 1 0 0 0 0 0 0 0 210 60 46 223 926 754 819 883 599 602 582 438 380 344 319 206 180 340 464 349 258 331 112 17 246 164 87
1 1 1 1 1 1 0 0 1 1 0 0 0 0 0 0 0 0 0 0 10 180 762 761 853 815 586 484 477 362 398 439 428 462 296 194 333 214 309 290 83 103 271 82 143
1 2 1 1 0 1 1 1 1 1 0 0 0 0 0 0 0 0 0 0 15 443 860 683 910 957 804 532 213 340 452 293 410 539 549 232 248 318 476 384 303 215 189 68 233
3 3 1 2 0 0 1 1 1 0 0 0 0 0 0 0 0 0 0 3 59 319 551 591 670 848 450 491 368 463 389 276 358 406 320 385 369 378 526 249 495 344 139 91 151
4 4 1 0 1 1 0 0 0 0 0 0 0 0 0 0 0 0 0 227 169 320 500 348 603 492 244 666 362 253 505 338 351 341 358 408 463 392 468 396 534 521 294 115 120
4 4 1 1 0 0 0 0 0 0 0 0 0 0 0 0 0 0 117 363 545 556 663 456 350 379 155 297 441 370 285 224 295 352 314 396 420 349 488 463 521 583 500 212 202
4 1 1 2 1 0 0 0 0 0 0 0 0 0 0 0 0 118 213 324 339 632 665 507 465 221 118 271 159 107 117 171 247 187 282 312 336 291 406 493 504 566 550 515 319
2 1 0 0 1 0 0 0 0 0 0 0 0 0 0 12 287 365 292 508 534 577 407 422 317 273 167 232 272 150 196 306 188 204 274 256 295 317 489 590 500 534 544 566 416
3 1 0 0 0 0 0 0 0 0 0 0 0 0 0 0 213 377 432 415 469 498 511 406 312 265 346 303 396 256 415 344 369 348 416 533 449 387 410 563 611 553 560 640 614
2 0 0 0 0 0 0 0 0 0 0 0 0 0 0 0 88 239 313 410 525 270 146 208 381 378 327 266 249 201 466 331 126 159 255 560 278 325 403 549 684 711 702 692 758
1 0 0 0 0 0 0 0 0 0 155 0 0 0 0 66 324 376 331 381 510 431 503 785 363 482 518 536 385 520 416 486 255 209 369 297 360 137 616 12 290 721 766 812 828
1 0 0 0 0 0 0 0 0 0 0 0 0 35 39 330 403 511 438 441 450 520 642 599 551 537 617 571 618 585 632 396 216 51 68 15 40 61 0 64 104 261 505 893 1001
0 0 0 0 0 0 0 0 0 0 0 0 93 304 256 372 664 627 547 649 639 553 292 313 460 549 604 682 695 711 373 84 10 13 1 0 0 3 0 66 269 446 659 834 1127
0 0 0 0 0 0 0 0 0 0 0 0 91 468 576 684 638 667 699 601 568 596 390 112 280 549 692 619 407 360 353 36 11 1 0 39 0 1 1 196 509 771 933 1193 1296
0 0 0 0 0 0 0 0 0 0 0 0 54 351 307 243 255 307 290 285 227 485 171 59 13 445 625 579 540 459 175 59 0 0 0 0 0 0 3 0 31 327 760 1038 1364
0 0 0 0 0 0 0 0 0 0 0 0 0 0 8 46 27 0 0 0 0 219 334 99 16 5 137 262 196 196 69 6 5 0 0 0 0 0 0 0 0 0 115 819 1388
0 0 0 0 0 0 0 0 0 0 0 0 0 0 0 0 0 0 0 0 0 0 0 0 0 0 3 41 0 9 2 0 0 0 0 0 0 0 0 0 0 0 90 691 1275
0 0 0 0 0 0 0 0 0 0 0 0 0 0 0 0 0 0 0 0 0 0 0 0 0 0 0 0 0 0 0 0 0 0 0 0 0 0 0 0 0 0 264 1105 1454
0 0 0 0 0 0 0 0 0 0 0 0 0 0 0 0 0 0 0 0 0 0 0 0 0 0 0 0 0 0 0 0 0 0 0 0 0 0 0 0 0 0 398 1516 1236
0 0 0 0 0 0 0 0 0 0 0 0 0 0 0 0 0 0 0 0 0 0 0 0 0 0 0 0 0 0 0 0 0 0 0 0 0 0 0 0 0 214 307 1348 1142
0 0 0 0 0 0 0 0 0 0 0 0 0 0 0 0 0 0 0 0 0 0 0 0 0 0 0 0 0 0 0 0 0 0 0 0 0 0 0 19 434 693 961 1436 891
41 0 0 0 0 0 0 0 0 0 0 0 0 0 0 0 0 0 0 0 0 0 0 0 0 0 0 0 0 0 0 0 0 0 0 0 0 0 5 37 514 1253 1202 1380 1258
0 0 0 0 0 0 0 0 0 0 0 0 0 0 0 0 0 0 0 0 0 0 0 0 0 0 0 0 0 0 0 0 0 0 0 0 0 0 10 462 1329 1448 1154 1181 1373
CIN
0 0 0 0 0 0 0 0 0 0 0 0 0 0 0 0 0 0 0 0 0 0 -390 -169 -106 -67 -79 -72 -102 -103 0 0 0 0 -3 -18 -11 -19 -36 -67 -71 -65 -57 -73 -123
0 0 0 0 0 0 0 0 0 0 0 0 0 0 0 0 0 0 0 0 -386 -391 -102 -35 -29 -65 -41 -52 -46 -10 0 0 -3 -3 0 -9 -1 -12 -18 -29 -32 -59 -69 -85 -85
0 0 0 0 0 0 0 0 0 0 0 0 0 0 0 0 0 0 0 -415 -338 -285 -60 -53 -52 -55 -26 -29 -31 -17 0 -4 -6 -4 -4 -5 -4 -9 -3 0 -6 -49 -70 -58 -68
0 0 0 0 0 0 0 0 0 0 0 0 0 0 0 0 0 0 0 -487 -352 -139 -60 -37 -30 -19 -7 -3 -22 -1 -15 -12 -19 -15 -9 -7 -7 -4 -1 -3 -7 -46 -50 -49 -50
0 0 0 0 0 0 0 0 0 0 0 0 0 0 0 0 0 0 -418 -281 -139 -122 -29 -29 -23 -14 -2 -9 -15 -3 -4 -11 -13 -11 -8 -13 -8 -4 -8 -16 -52 -45 -48 -33 -44
0 0 0 0 0 0 0 0 0 0 0 0 0 0 0 0 0 0 0 0 -68 -118 -31 -49 -36 -45 -14 -13 -13 -11 -6 -6 -9 -8 -9 -8 -13 -18 -17 -20 -34 -52 -39 -35 -14
0 0 0 0 0 0 0 0 0 0 0 0 0 0 0 0 0 0 0 0 -135 -74 -26 -40 -42 -26 -44 -17 -35 -13 0 -1 -5 -6 -2 -14 -8 -8 -12 -27 -25 -30 -32 -51 -15
0 0 0 0 0 0 0 0 0 0 0 0 0 0 0 0 0 0 0 -21 -101 -82 -57 -55 -51 -36 -73 -36 -14 -1 -1 0 -12 -14 -31 -13 0 0 -19 -43 -13 -22 -31 -29 -21
0 0 0 0 0 0 0 0 0 0 0 0 0 0 0 0 0 0 0 -55 -63 -57 -53 -76 -46 -33 -35 -1 -4 -17 0 0 -4 -14 -15 -13 -1 -1 -20 -30 -13 -19 -25 -29 -16
0 -1 0 0 0 0 0 0 0 0 0 0 0 0 0 0 0 0 -58 -41 -30 -26 -23 -33 -18 -5 -30 -1 0 0 0 -13 -1 -2 -17 -2 -1 0 -16 -18 -10 -13 -14 -27 -21
0 0 0 0 0 0 0 0 0 0 0 0 0 0 0 0 0 -74 -44 -25 -24 -13 0 -12 0 -1 -37 -12 -26 -3 -12 -13 -2 -1 -6 0 0 0 -2 -23 -12 -12 -18 -17 -13
0 0 0 0 0 0 0 0 0 0 0 0 0 0 0 -56 -23 -16 -19 -3 -3 0 -14 -6 -1 -8 -32 -18 -9 -2 -3 0 -2 -13 -15 -4 -7 -14 -8 -18 -15 -4 -10 -13 -6
0 0 0 0 0 0 0 0 0 0 0 0 0 0 0 0 0 -4 -6 -5 -8 -13 -9 -1 -12 -32 -26 -7 -3 0 -4 -3 -1 -5 -31 -47 -2 -13 -20 -20 -30 -23 -19 -16 -4
0 0 0 0 0 0 0 0 0 0 0 0 0 0 0 0 -20 -14 -10 -7 -16 -18 -37 -7 -36 -32 -19 -13 -11 0 -17 -10 -12 -2 0 -36 0 -1 -10 -27 -55 -61 -53 -37 -21
0 0 0 0 0 0 0 0 0 0 -6 0 0 0 0 -69 -10 -26 -45 -27 -2 -21 -32 -10 -12 -12 -5 -16 -29 -5 -22 -15 -16 0 -2 -1 0 -1 -17 -19 -21 -39 -54 -57 -55
0 0 0 0 0 0 0 0 0 0 0 0 0 -93 -98 -8 -13 -27 -27 -37 -51 -22 -22 -11 -32 -24 -5 -23 -26 -30 -11 -2 -9 -7 0 -7 -16 0 0 -23 -26 -33 -79 -88 -61
0 0 0 0 0 0 0 0 0 0 0 0 -80 -15 -6 -5 -2 -6 -10 -5 -1 0 0 -2 -1 -16 -35 -5 -16 -16 0 0 0 0 0 0 0 0 0 -30 -59 -92 -100 -124 -100
0 0 0 0 0 0 0 0 0 0 0 0 -92 0 0 0 0 0 0 0 0 0 0 0 -1 -8 -22 -4 -2 0 0 -5 0 0 0 -18 0 0 -2 -38 -80 -112 -139 -175 -151
0 0 0 0 0 0 0 0 0 0 0 0 -106 -1 -1 -2 -5 -1 0 0 0 -1 0 -14 0 -17 -26 -24 -14 -9 -2 -14 0 0 0 0 0 0 -10 0 -35 -62 -107 -120 -148
0 0 0 0 0 0 0 0 0 0 0 0 0 0 -30 -25 -43 0 0 0 0 -18 -9 -7 -3 -12 -16 -42 -41 -19 -36 0 0 0 0 0 0 0 0 0 0 0 -44 -82 -140
0 0 0 0 0 0 0 0 0 0 0 0 0 0 0 0 0 0 0 0 0 0 0 0 0 0 -35 -28 0 -29 -21 0 0 0 0 0 0 0 0 0 0 0 -35 -58 -106
0 0 0 0 0 0 0 0 0 0 0 0 0 0 0 0 0 0 0 0 0 0 0 0 0 0 0 0 0 0 0 0 0 0 0 0 0 0 0 0 0 0 -39 -52 -81
0 0 0 0 0 0 0 0 0 0 0 0 0 0 0 0 0 0 0 0 0 0 0 0 0 0 0 0 0 0 0 0 0 0 0 0 0 0 0 0 0 0 -37 -82 -131
0 0 0 0 0 0 0 0 0 0 0 0 0 0 0 0 0 0 0 0 0 0 0 0 0 0 0 0 0 0 0 0 0 0 0 0 0 0 0 0 0 -31 -34 -110 -113
0 0 0 0 0 0 0 0 0 0 0 0 0 0 0 0 0 0 0 0 0 0 0 0 0 0 0 0 0 0 0 0 0 0 0 0 0 0 0 -16 -16 -34 -62 -68 -141
-385 -3 0 0 0 0 0 0 0 0 0 0 0 0 0 0 0 0 0 0 0 0 0 0 0 0 0 0 0 0 0 0 0 0 0 0 0 0 -7 -27 -5 -26 -51 -31 -57
0 0 0 -9 0 0 0 0 0 0 0 0 0 0 0 0 0 0 0 0 0 0 0 0 0 0 0 0 0 0 0 0 0 0 0 0 0 0 -3 -5 -15 -25 -48 -33 -9
Wind_Speed
12 11 11 10 10 10 10 9 9 9 8 9 11 11 10 11 13 7 5 3 3 11 6 7 5 2 4 1 1 2 4 7 6 2 8 10 8 4 3 12 6 3 6 19 19
12 11 11 10 10 10 10 10 9 10 9 10 10 11 9 10 9 9 6 6 12 11 7 3 2 1 2 0 3 5 2 5 4 2 7 10 6 8 9 9 5 5 13 20 19
13 12 11 11 10 10 10 9 9 9 9 10 10 10 10 11 8 4 5 9 11 11 5 2 2 4 1 0 2 2 7 3 5 5 6 9 6 4 9 6 5 12 19 18 17
13 12 12 11 10 10 10 9 9 9 9 10 10 10 10 8 1 6 6 9 8 9 4 4 4 3 1 4 3 3 4 2 4 6 7 8 8 7 5 7 7 15 18 18 17
14 12 12 11 10 10 10 10 10 10 10 11 10 10 8 8 6 5 9 8 10 5 5 1 2 4 1 4 0 4 3 3 5 4 6 8 6 3 6 3 11 18 18 17 15
14 13 12 11 10 9 9 9 10 11 11 10 9 10 7 3 3 6 9 10 5 5 1 2 3 4 2 2 4 4 3 5 5 5 5 5 4 4 6 7 14 17 19 17 15
14 13 12 11 10 9 9 9 10 12 10 9 8 6 6 7 2 9 8 3 5 3 3 5 4 6 7 1 2 1 8 9 5 3 3 5 7 7 8 12 15 16 16 16 16
13 13 12 10 9 9 9 10 11 11 9 8 6 6 3 3 4 8 6 5 5 5 5 4 4 4 3 1 4 5 5 7 6 3 3 9 0 7 10 13 15 16 15 16 17
13 13 12 10 9 9 9 12 11 8 6 5 7 6 7 4 8 9 5 5 4 4 2 4 4 3 7 7 7 4 2 4 5 4 3 10 6 4 11 14 14 16 16 16 17
13 12 11 10 9 8 10 8 1 6 6 6 4 7 6 5 8 8 5 5 3 3 4 4 4 6 3 7 4 1 6 3 8 7 9 10 13 12 11 15 15 16 16 16 17
13 12 10 8 8 8 9 6 7 7 7 6 5 2 9 11 13 10 8 4 3 7 7 2 11 4 6 5 1 3 2 7 4 1 8 14 13 11 11 15 15 16 17 17 18
13 11 9 7 6 7 7 6 6 8 7 5 2 2 4 8 9 10 7 8 6 6 5 11 2 4 2 3 6 5 6 6 1 2 8 11 15 12 10 14 16 16 17 18 18
11 9 7 5 4 5 6 1 2 5 5 6 4 5 8 11 11 13 12 3 4 5 5 8 8 3 3 1 7 4 9 8 10 8 7 10 6 3 6 11 13 15 15 18 18
10 8 5 2 4 4 4 3 5 6 8 9 9 6 8 7 7 6 6 3 4 4 4 3 4 2 3 4 7 3 5 9 11 10 8 4 4 3 3 2 10 14 16 18 19
9 6 4 7 5 5 5 5 5 6 5 7 9 7 9 7 14 7 3 6 4 1 7 7 1 5 6 4 4 5 4 7 10 10 7 7 8 10 5 4 1 9 14 18 19
7 4 3 6 5 4 7 4 6 9 5 7 8 10 13 7 7 8 8 5 3 5 6 8 2 7 3 1 3 2 9 9 6 6 4 7 7 2 11 10 6 7 5 10 15
6 5 7 5 3 5 2 5 8 5 4 9 10 12 12 10 8 8 10 9 9 8 7 4 7 3 5 6 5 6 10 5 3 2 5 5 9 7 12 9 10 11 9 6 9
8 10 9 6 3 6 5 7 4 5 2 4 6 10 10 8 5 7 6 10 9 9 8 6 8 9 9 6 9 4 10 8 7 9 11 3 5 7 8 7 7 8 8 4 5
7 5 4 2 4 5 7 7 3 2 2 8 9 12 9 7 5 6 8 9 3 9 7 5 5 4 6 3 8 7 8 9 12 12 9 5 5 9 7 8 10 10 5 4 2
4 5 4 2 3 7 6 2 3 2 1 5 9 7 11 10 9 6 3 5 1 3 8 2 10 4 7 5 8 11 7 8 7 8 11 11 13 8 11 17 14 14 11 3 3
6 7 5 3 5 6 6 5 2 2 3 3 4 6 3 4 11 4 1 6 0 3 6 8 8 3 5 10 9 8 11 7 9 7 11 13 9 15 12 12 16 14 12 5 6
4 4 4 4 6 2 4 1 0 4 3 2 1 1 5 4 6 6 4 3 4 5 5 1 9 10 11 4 3 9 11 9 10 11 9 9 13 7 6 14 17 17 9 4 1
3 3 4 5 6 7 4 4 2 4 3 4 4 1 2 3 5 6 4 4 4 4 3 3 9 10 12 12 9 9 8 11 10 12 14 12 10 11 14 16 16 14 6 3 4
4 5 5 4 2 6 5 4 6 2 3 1 3 3 5 6 4 3 7 4 1 2 1 3 13 12 13 15 9 12 12 11 14 11 14 15 19 18 16 15 15 14 10 8 8
2 3 4 8 7 5 4 1 8 8 2 4 6 8 6 6 7 8 6 7 10 7 5 7 13 11 14 12 13 16 16 15 17 16 18 21 22 19 16 12 11 10 6 9 9
3 2 4 3 4 7 6 8 8 5 5 7 9 5 6 9 7 7 6 7 10 9 10 9 13 10 17 17 17 19 18 20 21 21 22 20 19 11 9 8 11 6 4 6 11
3 1 6 6 8 8 8 7 8 3 4 5 5 7 9 4 4 7 8 9 9 9 12 14 12 13 17 16 14 16 17 17 14 15 16 14 15 17 12 13 9 7 3 4 3
Wind_Direction
352 349 341 339 338 331 333 339 334 330 333 321 322 324 326 317 301 221 252 76 139 166 229 166 215 195 221 198 236 265 218 104 106 215 120 151 141 128 99 137 165 139 168 133 144
354 349 341 337 336 330 330 333 331 331 329 323 321 317 316 318 262 249 103 155 137 184 187 217 152 214 208 23 172 263 74 78 72 84 129 162 144 134 150 154 148 141 115 136 152
355 349 341 336 334 329 326 334 327 322 324 314 316 312 308 306 252 89 157 162 178 195 243 290 239 252 222 191 72 44 68 61 72 61 126 141 134 134 145 186 148 157 150 155 161
352 348 340 335 333 328 323 328 320 316 315 313 312 309 308 241 23 85 171 182 196 233 249 227 241 233 62 108 66 159 73 51 91 111 137 147 137 158 150 43 130 149 160 162 171
348 344 339 333 330 328 325 324 318 315 312 314 310 308 270 217 60 62 154 153 177 232 266 338 354 335 354 109 131 6 58 139 116 120 111 139 170 95 190 67 138 147 164 175 179
344 340 337 331 328 324 321 317 311 307 310 306 303 304 252 179 33 130 157 163 168 244 305 299 351 345 57 61 328 22 157 118 146 164 138 178 163 213 133 157 148 162 172 181 184
340 339 334 329 326 321 317 310 304 301 301 296 292 279 259 61 24 150 170 192 206 236 331 21 332 284 1 246 20 309 145 130 86 154 160 221 208 232 148 170 167 175 182 182 186
336 335 332 329 324 319 312 303 295 292 289 281 272 254 55 11 154 170 180 175 207 232 287 341 312 287 245 293 225 234 226 199 102 214 145 227 213 169 160 185 184 184 188 190 188
335 331 330 327 321 315 308 300 287 277 257 268 233 252 112 158 178 172 215 176 215 225 248 284 278 316 205 245 183 241 234 206 176 228 204 231 272 144 171 195 197 190 191 196 193
332 328 327 324 319 315 304 280 249 243 220 223 261 239 166 148 139 165 169 187 222 240 226 248 252 231 178 238 298 329 196 219 265 186 233 245 260 276 181 203 207 197 195 199 201
328 327 325 325 318 324 287 189 188 166 213 325 128 58 126 117 149 180 170 186 201 239 280 202 262 39 39 16 33 303 322 283 285 260 282 270 281 288 184 221 211 205 197 204 209
326 325 321 322 312 307 269 254 27 9 174 213 248 175 146 171 146 162 190 224 224 260 252 224 286 88 19 318 287 273 245 340 38 327 285 300 295 284 246 215 227 215 212 208 208
323 322 319 319 302 241 258 300 17 305 234 147 185 196 172 201 173 169 208 189 290 253 261 306 57 100 245 230 264 84 334 353 330 307 228 300 237 108 214 234 226 235 227 217 215
320 318 309 302 266 146 211 143 244 297 205 135 180 155 176 211 162 138 214 291 186 315 316 344 96 219 264 262 279 72 352 317 319 312 352 5 310 158 74 234 227 231 229 228 221
319 312 286 247 346 220 57 296 265 213 183 140 127 119 159 221 123 161 174 217 280 42 281 93 268 249 276 35 297 31 296 321 310 294 286 108 259 83 155 40 205 223 234 235 231
315 289 235 198 230 319 314 187 216 229 104 142 142 175 178 177 151 135 193 217 329 273 229 275 279 275 310 273 296 332 275 251 264 277 211 48 328 271 30 358 354 319 309 265 236
296 239 218 305 52 339 272 217 224 288 153 151 164 175 174 163 149 184 188 203 237 230 185 207 201 161 247 245 186 248 259 288 296 222 31 67 294 327 22 11 347 325 318 301 250
291 184 199 271 303 312 231 233 254 90 171 114 168 171 181 158 186 190 206 235 214 268 284 283 179 192 166 265 342 292 313 306 308 326 336 133 275 18 37 35 10 337 332 317 279
153 184 208 164 224 224 249 232 74 109 95 169 170 185 181 191 285 215 227 271 317 200 269 294 230 114 206 189 259 112 245 6 291 274 260 318 336 295 152 77 32 350 325 303 285
220 196 120 98 181 245 252 24 108 23 193 225 197 229 189 185 209 210 171 91 168 272 263 350 279 96 109 231 219 264 357 249 212 283 296 307 306 297 350 334 348 344 336 271 205
225 198 92 192 247 233 245 81 127 110 239 230 200 180 253 198 240 223 98 113 13 138 246 302 265 139 175 207 303 177 232 224 301 280 304 298 311 346 333 333 331 327 336 289 221
230 189 119 247 221 234 206 113 208 127 168 165 264 333 235 197 216 240 270 344 8 288 262 18 301 284 307 66 277 279 288 277 285 293 287 294 283 67 317 324 310 315 348 312 226
194 96 160 257 217 199 136 177 242 188 137 173 149 312 205 184 228 254 227 94 355 246 309 194 258 274 246 181 194 238 231 263 288 285 268 284 290 317 318 316 316 345 335 151 187
225 155 152 212 316 280 189 170 159 135 129 172 130 207 198 210 200 222 228 166 131 239 350 227 264 275 285 316 325 287 258 242 275 281 294 287 305 319 324 317 345 343 316 164 185
290 89 11 181 198 209 243 217 195 179 200 214 188 240 224 229 226 231 236 224 192 152 211 261 274 284 277 284 276 277 280 281 272 267 276 298 302 310 314 355 332 330 324 156 193
305 265 179 150 163 211 157 200 224 163 229 196 252 195 208 260 256 299 261 249 270 178 251 249 276 280 277 276 270 270 271 276 276 279 280 282 288 303 4 322 337 335 280 204 210
30 200 288 135 194 218 207 214 216 212 190 276 257 220 226 258 310 309 287 290 285 270 281 284 282 269 271 289 300 279 266 264 271 274 285 286 311 333 328 336 341 349 324 278 219